Weather History for Eagle River, WI

Change the Weather History Date:

Saturday, March 29, 2014

  Actual Average Record
Temperature  
Mean Temperature 28 °F -  
Max Temperature 41 °F 43 °F 62 °F (1993)
Min Temperature 17 °F 24 °F 4 °F (2011)
Degree Days  
Heating Degree Days 36    
Moisture  
Dew Point 18 °F    
Average Humidity 68    
Maximum Humidity 99    
Minimum Humidity 38    
Precipitation  
Precipitation 0.01 in - - ()
Sea Level Pressure  
Sea Level Pressure 30.19 in    
Wind  
Wind Speed 2 mph (South)    
Max Wind Speed 9 mph    
Max Gust Speed -    
Visibility 10 miles    
Events      
Averages and records for this station are not official NWS values.
T = Trace of Precipitation, MM = Missing Value Source: NWS Daily Summary

Daily Weather History Graph

Daily Weather History Graph

Search for Another Location

Airport:

Trip Planner

Search our weather history database for the weather conditions in past years. The results will help you decide how hot, cold, wet, or windy it might be!

Date:

Astronomy

Mar. 29, 2014 Rise Set
Actual Time 6:42 AM CDT 7:21 PM CDT
Civil Twilight 6:12 AM CDT 7:51 PM CDT
Nautical Twilight 5:37 AM CDT 8:27 PM CDT
Astronomical Twilight 5:00 AM CDT 9:04 PM CDT
Moon 5:55 AM CDT (3/29) 6:24 PM CDT (3/29)
Length of Visible Light 13h 39m
Length of Day
12h 38m
Waning Crescent, 2% of the Moon is Illuminated
Mar 29
Waning Crescent
Mar 30
New
Apr 7
First Quarter
Apr 15
Full
Apr 22
Last Quarter

Hourly Weather History & Observations

Time (CDT) Temp. Windchill Dew Point Humidity Pressure Visibility Wind Dir Wind Speed Gust Speed Precip Events Conditions
12:15 AM 25.5 °F - 19.4 °F 78% 30.18 in 10.0 mi Calm Calm - N/A   Overcast
12:35 AM 24.8 °F 20.5 °F 19.2 °F 79% 30.18 in 10.0 mi NNE 3.5 mph - N/A   Scattered Clouds
12:55 AM 23.0 °F - 18.5 °F 83% 30.18 in 10.0 mi Calm Calm - N/A   Scattered Clouds
1:15 AM 22.6 °F - 18.7 °F 85% 30.18 in 10.0 mi Calm Calm - N/A   Scattered Clouds
1:35 AM 20.8 °F - 19.8 °F 96% 30.18 in 10.0 mi Calm Calm - N/A   Scattered Clouds
1:55 AM 20.3 °F - 18.7 °F 93% 30.18 in 10.0 mi Calm Calm - N/A   Clear
2:15 AM 17.4 °F - 16.7 °F 97% 30.20 in 10.0 mi Calm Calm - N/A   Clear
2:35 AM 17.8 °F - 17.2 °F 98% 30.20 in 4.0 mi Calm Calm - N/A   Scattered Clouds
2:55 AM 18.1 °F - 17.2 °F 96% 30.20 in 10.0 mi Calm Calm - N/A   Mostly Cloudy
3:15 AM 17.6 °F - 16.9 °F 97% 30.21 in 10.0 mi Calm Calm - N/A   Mostly Cloudy
3:35 AM 18.9 °F - 18.3 °F 98% 30.21 in 10.0 mi Calm Calm - N/A   Overcast
3:55 AM 19.9 °F - 19.8 °F 99% 30.21 in 10.0 mi Calm Calm - N/A   Overcast
4:15 AM 19.2 °F - 18.7 °F 98% 30.22 in 10.0 mi Calm Calm - N/A   Overcast
4:35 AM 21.9 °F - 21.7 °F 99% 30.22 in 10.0 mi Calm Calm - N/A   Overcast
4:55 AM 20.8 °F - 20.3 °F 98% 30.22 in 10.0 mi Calm Calm - N/A   Overcast
5:15 AM 23.4 °F 18.9 °F 20.8 °F 90% 30.22 in 10.0 mi SE 3.5 mph - N/A   Overcast
5:35 AM 21.7 °F - 17.6 °F 84% 30.22 in 10.0 mi Calm Calm - N/A   Overcast
5:55 AM 19.9 °F - 16.9 °F 88% 30.23 in 10.0 mi Calm Calm - N/A   Overcast
6:15 AM 19.4 °F - 16.0 °F 87% 30.23 in 10.0 mi Calm Calm - N/A   Overcast
6:35 AM 19.2 °F - 17.8 °F 94% 30.24 in 10.0 mi Calm Calm - N/A   Overcast
6:55 AM 19.6 °F - 17.2 °F 91% 30.24 in 10.0 mi Calm Calm - N/A   Overcast
7:15 AM 19.2 °F - 16.0 °F 87% 30.24 in 10.0 mi Calm Calm - N/A   Mostly Cloudy
7:35 AM 19.6 °F - 18.0 °F 93% 30.24 in 10.0 mi Calm Calm - N/A   Scattered Clouds
7:55 AM 19.9 °F - 17.4 °F 90% 30.24 in 10.0 mi Calm Calm - N/A   Scattered Clouds
8:15 AM 22.1 °F - 18.7 °F 87% 30.24 in 10.0 mi Calm Calm - N/A   Mostly Cloudy
8:35 AM 26.2 °F - 18.1 °F 71% 30.24 in 10.0 mi Calm Calm - N/A   Overcast
8:55 AM 27.5 °F 23.6 °F 16.7 °F 64% 30.24 in 10.0 mi SSE 3.5 mph - N/A   Overcast
9:15 AM 27.7 °F 21.3 °F 16.0 °F 62% 30.25 in 10.0 mi South 5.8 mph - N/A   Overcast
9:35 AM 28.9 °F 22.8 °F 14.7 °F 55% 30.25 in 10.0 mi South 5.8 mph - N/A   Mostly Cloudy
9:55 AM 29.1 °F 24.1 °F 13.3 °F 52% 30.25 in 10.0 mi SSE 4.6 mph - N/A   Mostly Cloudy
10:15 AM 30.0 °F 25.2 °F 14.9 °F 53% 30.25 in 10.0 mi ESE 4.6 mph - N/A   Mostly Cloudy
10:35 AM 30.7 °F 26.0 °F 15.8 °F 54% 30.25 in 10.0 mi SE 4.6 mph - N/A   Mostly Cloudy
10:55 AM 32.0 °F 26.4 °F 17.1 °F 54% 30.25 in 10.0 mi South 5.8 mph - 0.01 in   Overcast
11:15 AM 32.7 °F 26.4 °F 17.8 °F 54% 30.24 in 10.0 mi South 6.9 mph - N/A   Scattered Clouds
11:35 AM 33.8 °F 29.6 °F 18.3 °F 53% 30.24 in 10.0 mi South 4.6 mph - N/A   Clear
11:55 AM 34.2 °F - 18.5 °F 53% 30.23 in 10.0 mi Calm Calm - N/A   Scattered Clouds
12:15 PM 35.2 °F 29.5 °F 18.9 °F 51% 30.22 in 10.0 mi SE 6.9 mph - N/A   Mostly Cloudy
12:35 PM 35.8 °F 30.9 °F 18.7 °F 50% 30.22 in 10.0 mi South 5.8 mph - N/A   Mostly Cloudy
12:55 PM 33.6 °F 29.4 °F 18.7 °F 54% 30.22 in 10.0 mi WSW 4.6 mph - N/A   Scattered Clouds
1:15 PM 36.0 °F 31.1 °F 18.0 °F 48% 30.21 in 10.0 mi WSW 5.8 mph - N/A   Scattered Clouds
1:35 PM 36.7 °F - 17.1 °F 45% 30.21 in 10.0 mi Calm Calm - N/A   Scattered Clouds
1:55 PM 37.4 °F 33.8 °F 18.1 °F 46% 30.20 in 10.0 mi SSW 4.6 mph - N/A   Clear
2:15 PM 36.9 °F 34.3 °F 18.1 °F 47% 30.20 in 10.0 mi West 3.5 mph - N/A   Mostly Cloudy
2:35 PM 37.4 °F - 18.1 °F 46% 30.18 in 10.0 mi Calm Calm - N/A   Mostly Cloudy
2:55 PM 37.2 °F - 16.3 °F 43% 30.18 in 10.0 mi Calm Calm - N/A   Scattered Clouds
3:15 PM 38.8 °F 36.5 °F 17.2 °F 42% 30.18 in 10.0 mi NNE 3.5 mph - N/A   Scattered Clouds
3:35 PM 39.4 °F - 18.0 °F 42% 30.17 in 10.0 mi Calm Calm - N/A   Mostly Cloudy
3:55 PM 37.9 °F - 16.9 °F 43% 30.16 in 10.0 mi Calm Calm - N/A   Mostly Cloudy
4:15 PM 40.1 °F 38.0 °F 17.4 °F 40% 30.15 in 10.0 mi East 3.5 mph - N/A   Scattered Clouds
4:35 PM 40.8 °F - 16.7 °F 38% 30.15 in 10.0 mi Calm Calm - N/A   Scattered Clouds
4:55 PM 40.8 °F - 17.2 °F 39% 30.15 in 10.0 mi Calm Calm - N/A   Mostly Cloudy
5:15 PM 38.8 °F 32.6 °F 19.0 °F 45% 30.15 in 10.0 mi WSW 9.2 mph - N/A   Scattered Clouds
5:35 PM 39.0 °F 35.7 °F 17.1 °F 41% 30.15 in 10.0 mi South 4.6 mph - N/A   Scattered Clouds
5:55 PM 39.7 °F 34.9 °F 17.6 °F 41% 30.15 in 10.0 mi SW 6.9 mph - N/A   Scattered Clouds
6:15 PM 39.4 °F 37.2 °F 17.2 °F 41% 30.15 in 10.0 mi SW 3.5 mph - N/A   Clear
6:35 PM 39.2 °F 37.0 °F 17.2 °F 41% 30.15 in 10.0 mi SSW 3.5 mph - N/A   Clear
6:55 PM 38.3 °F 35.9 °F 17.8 °F 44% 30.15 in 10.0 mi SW 3.5 mph - N/A   Clear
7:15 PM 37.2 °F - 17.8 °F 45% 30.15 in 10.0 mi Calm Calm - N/A   Clear
7:35 PM 33.3 °F - 19.2 °F 56% 30.15 in 10.0 mi Calm Calm - N/A   Clear
7:55 PM 30.7 °F - 20.3 °F 65% 30.15 in 10.0 mi Calm Calm - N/A   Clear
8:15 PM 29.7 °F - 20.8 °F 70% 30.15 in 10.0 mi Calm Calm - N/A   Clear
8:35 PM 28.0 °F - 21.4 °F 76% 30.15 in 10.0 mi Calm Calm - N/A   Clear
8:55 PM 27.7 °F - 21.0 °F 76% 30.15 in 10.0 mi Calm Calm - N/A   Clear
9:15 PM 27.0 °F - 20.8 °F 78% 30.15 in 10.0 mi Calm Calm - N/A   Clear
9:35 PM 27.5 °F - 20.8 °F 76% 30.15 in 10.0 mi Calm Calm - N/A   Clear
9:55 PM 28.8 °F 25.0 °F 20.3 °F 71% 30.15 in 10.0 mi South 3.5 mph - N/A   Clear
10:15 PM 27.0 °F - 20.3 °F 76% 30.15 in 10.0 mi Calm Calm - N/A   Clear
10:35 PM 28.9 °F 23.9 °F 19.8 °F 69% 30.14 in 10.0 mi SSE 4.6 mph - N/A   Clear
10:55 PM 29.3 °F 25.6 °F 19.4 °F 67% 30.13 in 10.0 mi SSE 3.5 mph - N/A   Clear
11:15 PM 28.2 °F 23.1 °F 19.4 °F 70% 30.14 in 10.0 mi SSE 4.6 mph - N/A   Clear
11:35 PM 28.8 °F 23.7 °F 19.0 °F 67% 30.14 in 10.0 mi South 4.6 mph - N/A   Clear
11:55 PM 28.4 °F 23.3 °F 18.9 °F 67% 30.14 in 10.0 mi South 4.6 mph - N/A   Clear